Погода в Ясном

Украина / Запорожская область     47°01′41″N   35°38′54″E
темп.,
°C
ветер,
м/с
пор.,
м/с
влажн.,
%
обл.,
%
осадки,
мм/ч
давл.,
гПа
погр.,
м
22 апреля, чт
чт2200:00+8юз37895 0.1 1020135
03:00+7юз33915 0.1 102044
06:00+6юз22935 0.0 102122
09:00+12ююз34725 0.0 1022531
12:00+16юз445222 0.0 10221563
15:00+15ююз545196 0.1 10211437
18:00+14ю5662100 0.0 1021488
21:00+11ю477440 0.0 1023294
23 апреля, пт
пт2300:00+8юз33841 0.0 102240
03:00+8ююз22870 0.0 102212
06:00+7ю22895 0.0 102225
09:00+13ююз46609 0.0 1022574
12:00+16ю7749100 0.0 10211215
15:00+17ю784546 0.0 10191391
18:00+14ю6962100 0.0 1018677
21:00+11ю51174100 0.1 1018389
24 апреля, сб
сб2400:00+10ю4683100 0.4 1017192
03:00+9зюз378792 0.4 1016163
06:00+8ссз5990100 1.4 1017519
09:00+10сз57632 1.6 1018971
12:00+13зсз79425 0.0 10192110
15:00+14з8113498 0.0 10182772
18:00+11сз911555 0.0 10191449
21:00+7з410544 0.0 1022224
25 апреля, вс
вс2500:00+5сз3456100 0.0 102260
03:00+4зсз3360100 0.0 102349
06:00+3сз236863 0.0 102340
09:00+9сз2348100 0.0 1023928
12:00+11сз3336100 0.0 10221788
15:00+13ссз333377 0.0 10211900
18:00+12с2237100 0.0 1020881
21:00+7ююз3560100 0.0 102195
26 апреля, пн
пн2600:00+5юз3364100 0.0 102039
03:00+5з2262100 0.0 101929
06:00+4зсз347037 0.0 101969
09:00+10зюз454790 0.0 1018647
12:00+13з685198 0.0 10181869
15:00+11зсз575724 0.1 10181332
18:00+12сз674257 0.0 10181792
21:00+7зюз22475 0.0 101914